Regional Weather Roundup
Issued by NWS Kansas City/Pleasant Hill, MO

Home | Current Version | Previous Version | Text Only | Print | Product List | Glossary On
Versions: 1 2 3 4 5 6 7 8 9 10 11 12 13 14 15 16 17 18 19 20 21 22 23 24 25 26 27 28
000
ASUS43 KEAX 250110
RWREAX

WEATHER ROUNDUP FOR EASTERN KANSAS AND NORTHWEST MISSOURI
NATIONAL WEATHER SERVICE KANSAS CITY/PLEASANT HILL MO
800 PM CDT THU MAY 24 2018

KSZ040-057-103>105-MOZ028-029-037-043-250200-
...KANSAS CITY METROPOLITAN AREA...

CITY           SKY/WX    TMP DP  RH WIND       PRES   REMARKS
K.C. INTL      LGT RAIN  68  67  96 SW6       29.99F
K.C. DOWNTOWN  CLOUDY    73  63  70 SW8       29.98F
LEES SUMMIT    CLOUDY    73  64  73 SW7       30.01S
OLATHE - IXD   LGT RAIN  67  65  93 S10       30.01F
OLATHE - OJC   LGT RAIN  66  65  96 S6        30.01F
LAWRENCE       LGT RAIN  69  67  93 SE5       29.99S

$$

MOZ001>008-011>017-020>025-030>033-038>040-044>046-053-054-250200-
...NORTHERN AND CENTRAL MISSOURI...

CITY           SKY/WX    TMP DP  RH WIND       PRES   REMARKS
ST. JOSEPH     CLOUDY    76  67  73 S8        29.98S
MOSBY          CLOUDY    77  66  69 W6        29.99S
WARRENSBURG    CLOUDY    77  63  61 SW13G22   30.02R
WHITEMAN AFB   MOCLDY    78  69  73 S5        29.97F
CLINTON        CLOUDY    79  72  78 CALM      30.02S
SEDALIA        CLOUDY    76  71  85 S5        30.02F
WARSAW         NOT AVBL
CHILLICOTHE      N/A     81  66  60 S7G16     29.99S
KIRKSVILLE     CLEAR     79  67  66 S5        30.01S

$$

MOZ041-047>049-056>058-063>065-088>090-097-250200-
...EASTERN AND SOUTHERN MISSOURI...

CITY           SKY/WX    TMP DP  RH WIND       PRES   REMARKS
ST. LOUIS INTL PTCLDY    83  62  49 SE9       30.02S
SPIRIT OF STL  PTCLDY    82  64  54 SE5       30.00F
COLUMBIA       MOCLDY    78  69  73 CALM      30.02S
JEFFERSON CITY CLOUDY    81  67  62 E3        30.01R
ROLLA          CLEAR     78  66  66 S3        30.05R
OSAGE BEACH    MOCLDY    76  69  79 CALM      30.04R
SPRINGFIELD    CLOUDY    77  63  61 E3        30.04S
BRANSON        CLOUDY    72  63  73 S6        30.06S
JOPLIN         LGT RAIN  75  69  81 E5        30.01F
WEST PLAINS    CLOUDY    76  67  73 SE7       30.07R

$$

IAZ060-094-KSZ022-034>040-054-083-096-NEZ052-066-093-250200-
...KANSAS...SOUTHEAST NEBRASKA AND IOWA...

CITY           SKY/WX    TMP DP  RH WIND       PRES   REMARKS
TOPEKA         LGT RAIN  70  68  93 E5        29.98R
MANHATTAN      MOCLDY    76  64  66 S8        29.95F
EMPORIA        CLOUDY    68  65  90 SE8       29.99F
CHANUTE        CLOUDY    78  70  76 VRB6      30.01R
WICHITA        MOCLDY    80  66  62 S12       29.94S
OMAHA          CLOUDY    86  62  44 SE16      29.89F
LINCOLN        CLOUDY    83  65  54 S8        29.90S
FALLS CITY     CLOUDY    76  64  66 S14       29.95S
LAMONI         CLOUDY    79  65  62 S8        29.98S
DES MOINES     MOCLDY    83  63  50 S13       29.95S

$$





USA.gov is the U.S. government's official web portal to all federal, state and local government web resources and services.